This is the latest recevied weather packets stored in our database for station/object KF4PPJ. If no packets are shown the sender has not sent any weather packets the latest 10 day(s).
| Time | Temp. | Humidity | Pressure | Rain* | Wind** | Luminosity | Snow |
|---|---|---|---|---|---|---|---|
| 1777919191 | 18.89° C | 62% | 1014.3 hPa | 0 mm | - | 652 W/m² | - |
| 1777918888 | 18.89° C | 63% | 1014 hPa | 0 mm | - | 582 W/m² | - |
| 1777918586 | 18.33° C | 64% | 1014.4 hPa | 0 mm | - | 510 W/m² | - |
| 1777918283 | 18.89° C | 63% | 1014.3 hPa | 0 mm | - | 509 W/m² | - |
| 1777917982 | 18.33° C | 65% | 1014.5 hPa | 0 mm | - | 586 W/m² | - |
| 1777917681 | 18.89° C | 63% | 1014.3 hPa | 0 mm | - | 706 W/m² | - |
| 1777917378 | 18.89° C | 64% | 1014.5 hPa | 0 mm | - | 738 W/m² | - |
| 1777917074 | 18.33° C | 64% | 1014.4 hPa | 0 mm | - | 731 W/m² | - |
| 1777916772 | 18.33° C | 65% | 1014.4 hPa | 0 mm | - | 702 W/m² | - |
| 1777916468 | 17.78° C | 67% | 1014.3 hPa | 0 mm | - | 641 W/m² | - |
| 1777916165 | 17.22° C | 68% | 1014.2 hPa | 0 mm | - | 630 W/m² | - |
| 1777915863 | 17.22° C | 66% | 1014.4 hPa | 0 mm | - | 475 W/m² | - |
| 1777915559 | 17.22° C | 67% | 1014.3 hPa | 0 mm | - | 655 W/m² | - |
| 1777915256 | 17.22° C | 66% | 1014.3 hPa | 0 mm | - | 596 W/m² | - |
| 1777914952 | 17.22° C | 66% | 1014.3 hPa | 0 mm | - | 544 W/m² | - |
| 1777914650 | 17.22° C | 67% | 1014.4 hPa | 0 mm | - | 540 W/m² | - |
| 1777914345 | 17.22° C | 66% | 1014.2 hPa | 0 mm | - | 537 W/m² | - |
| 1777914043 | 17.22° C | 66% | 1014.4 hPa | 0 mm | - | 520 W/m² | - |
| 1777913739 | 16.67° C | 67% | 1014.4 hPa | 0 mm | - | 483 W/m² | - |
| 1777913436 | 16.67° C | 67% | 1014 hPa | 0 mm | - | 518 W/m² | - |
| 1777913132 | 16.67° C | 67% | 1014.1 hPa | 0 mm | - | 435 W/m² | - |
| 1777912829 | 16.67° C | 67% | 1014.1 hPa | 0 mm | - | 342 W/m² | - |
| 1777912525 | 16.11° C | 68% | 1014 hPa | 0 mm | - | 384 W/m² | - |
| 1777912222 | 16.11° C | 67% | 1014 hPa | 0 mm | - | 374 W/m² | - |
| 1777911918 | 16.67° C | 66% | 1013.9 hPa | 0 mm | - | 382 W/m² | - |
* Rain latest hour (hover to see other rain measurements)
** Current wind speed in m/s (hover to see current wind gust speed)